STARLINK-35462

Last updated on Mon Oct 20 2025 00:02:07 GMT+0000 (Coordinated Universal Time)

1 65877U 25223Z 25292.25002315 -.01907084 00000+0 -21794-1 0 9999 2 65877 53.1596 234.9138 0001299 92.1632 47.2692 15.64688781 3735
UTC large
Height (km)
Speed (km/s)
/
Latitude / Longitude
Inclination (degrees)
Orbital Period (minutes)
Azimuth
Elevation
Range (km)
Doppler Factor

Next 0 passes for location: London (51.5072 / 0.1276)

Sorry there are no passes over London.